• Em Portugal
  • Lista de países
  • Para 7 dias
  • Temperatura da água
  • Mapas de satélite
  • Mapa do tempo
  • Widgets de tempo
  • user-avatar
    Iniciar Sessão

    Previsão horária em Quito

    Hoje, 16 Dezembro, Sábado

    Tempo Temperatura Precipitação Vento Pressão Humidade
    00:00 +16°C° 0,5 mm 0 m/s 621 mmHg 90%
    01:00 +16°C° 0 mm 0 m/s 621 mmHg 92%
    02:00 +16°C° 0,4 mm 0 m/s 621 mmHg 93%
    03:00 +16°C° 0,4 mm 0 m/s 621 mmHg 94%
    04:00 +15°C° 0,4 mm 0 m/s 621 mmHg 95%
    05:00 +16°C° 0 mm 0 m/s 622 mmHg 94%
    06:00 +17°C° 0 mm 0 m/s 622 mmHg 93%
    07:00 +17°C° 0 mm 0 m/s 623 mmHg 92%
    08:00 +21°C° 0,3 mm 1 m/s 623 mmHg 87%
    09:00 +22°C° 0,3 mm 1 m/s 623 mmHg 82%
    10:00 +23°C° 0,3 mm 2 m/s 623 mmHg 77%
    11:00 +24°C° 0,8 mm 2 m/s 623 mmHg 75%
    12:00 +24°C° 0,8 mm 2 m/s 623 mmHg 73%
    13:00 +25°C° 0,8 mm 2 m/s 623 mmHg 70%
    14:00 +24°C° 0,7 mm 1 m/s 622 mmHg 73%
    15:00 +24°C° 0,7 mm 1 m/s 622 mmHg 76%
    16:00 +23°C° 0,7 mm 1 m/s 622 mmHg 79%
    17:00 +22°C° 0,5 mm 1 m/s 621 mmHg 82%
    18:00 +19°C° 0,5 mm 0 m/s 621 mmHg 86%
    19:00 +18°C° 0,5 mm 0 m/s 621 mmHg 90%
    20:00 +17°C° 0,3 mm 0 m/s 621 mmHg 90%
    21:00 +17°C° 0,3 mm 0 m/s 622 mmHg 90%
    22:00 +17°C° 0,3 mm 0 m/s 622 mmHg 91%
    23:00 +17°C° 0,2 mm 0 m/s 622 mmHg 91%

    Amanhã, 17 Dezembro, Domingo

    Tempo Temperatura Precipitação Vento Pressão Humidade
    00:00 +16°C° 0,2 mm 0 m/s 622 mmHg 92%
    01:00 +16°C° 0,2 mm 0 m/s 621 mmHg 92%
    02:00 +16°C° 0,4 mm 0 m/s 621 mmHg 93%
    03:00 +16°C° 0,4 mm 0 m/s 621 mmHg 93%
    04:00 +16°C° 0,4 mm 0 m/s 621 mmHg 94%
    05:00 +16°C° 0,2 mm 0 m/s 621 mmHg 93%
    06:00 +17°C° 0,2 mm 0 m/s 622 mmHg 93%
    07:00 +19°C° 0,2 mm 1 m/s 622 mmHg 93%
    08:00 +20°C° 0,4 mm 1 m/s 622 mmHg 89%
    09:00 +21°C° 0,4 mm 1 m/s 623 mmHg 85%
    10:00 +22°C° 0,4 mm 1 m/s 623 mmHg 81%
    11:00 +23°C° 0,9 mm 1 m/s 623 mmHg 81%
    12:00 +23°C° 0,9 mm 2 m/s 623 mmHg 81%
    13:00 +23°C° 0,9 mm 2 m/s 622 mmHg 80%
    14:00 +23°C° 0,9 mm 2 m/s 622 mmHg 81%
    15:00 +23°C° 0,9 mm 2 m/s 621 mmHg 82%
    16:00 +23°C° 0,9 mm 2 m/s 621 mmHg 83%
    17:00 +21°C° 1,5 mm 2 m/s 621 mmHg 86%
    18:00 +20°C° 1,5 mm 1 m/s 621 mmHg 90%
    19:00 +19°C° 1,5 mm 1 m/s 621 mmHg 94%
    20:00 +19°C° 1 mm 1 m/s 622 mmHg 94%
    21:00 +19°C° 1 mm 1 m/s 622 mmHg 94%
    22:00 +18°C° 1 mm 1 m/s 623 mmHg 95%
    23:00 +18°C° 0,4 mm 1 m/s 622 mmHg 95%

    Depois de amanhã, 18 Dezembro, Segunda-feira

    Tempo Temperatura Precipitação Vento Pressão Humidade
    00:00 +18°C° 0,4 mm 1 m/s 622 mmHg 96%
    01:00 +18°C° 0,4 mm 1 m/s 622 mmHg 96%
    02:00 +16°C° 0,3 mm 1 m/s 621 mmHg 96%
    03:00 +16°C° 0,3 mm 1 m/s 621 mmHg 96%
    04:00 +16°C° 0,3 mm 1 m/s 621 mmHg 96%
    05:00 +16°C° 0,2 mm 1 m/s 621 mmHg 96%
    06:00 +18°C° 0,2 mm 1 m/s 622 mmHg 95%
    07:00 +18°C° 0,2 mm 1 m/s 622 mmHg 94%
    08:00 +20°C° 0,1 mm 1 m/s 623 mmHg 86%
    09:00 +21°C° 0,1 mm 2 m/s 623 mmHg 78%
    10:00 +23°C° 0,1 mm 2 m/s 624 mmHg 70%
    11:00 +23°C° 0,7 mm 2 m/s 623 mmHg 73%
    12:00 +23°C° 0,7 mm 2 m/s 622 mmHg 76%
    13:00 +22°C° 0,7 mm 3 m/s 622 mmHg 79%
    14:00 +22°C° 0,9 mm 3 m/s 621 mmHg 81%
    15:00 +21°C° 0,9 mm 3 m/s 621 mmHg 83%
    16:00 +21°C° 0,9 mm 3 m/s 620 mmHg 85%
    17:00 +20°C° 0,5 mm 2 m/s 620 mmHg 89%
    18:00 +19°C° 0,5 mm 2 m/s 620 mmHg 92%
    19:00 +17°C° 0,5 mm 2 m/s 620 mmHg 96%
    20:00 +17°C° 0,2 mm 2 m/s 621 mmHg 96%
    21:00 +18°C° 0,2 mm 1 m/s 621 mmHg 97%
    22:00 +16°C° 0,2 mm 1 m/s 621 mmHg 97%
    23:00 +16°C° 0,1 mm 1 m/s 621 mmHg 97%

    19 Dezembro, Terça-feira

    Tempo Temperatura Precipitação Vento Pressão Humidade
    00:00 +16°C° 0,1 mm 1 m/s 621 mmHg 97%
    01:00 +16°C° 0,1 mm 1 m/s 620 mmHg 97%
    02:00 +16°C° 0 mm 1 m/s 620 mmHg 97%
    03:00 +16°C° 0 mm 1 m/s 620 mmHg 97%
    04:00 +16°C° 0 mm 1 m/s 620 mmHg 97%
    05:00 +16°C° 0 mm 1 m/s 620 mmHg 96%
    06:00 +16°C° 0 mm 1 m/s 621 mmHg 95%
    07:00 +18°C° 0 mm 1 m/s 621 mmHg 94%
    08:00 +19°C° 0 mm 1 m/s 622 mmHg 85%
    09:00 +21°C° 0 mm 1 m/s 623 mmHg 76%
    10:00 +23°C° 0 mm 2 m/s 623 mmHg 67%
    11:00 +24°C° 0,1 mm 2 m/s 623 mmHg 65%
    12:00 +25°C° 0,1 mm 2 m/s 622 mmHg 62%
    13:00 +25°C° 0,1 mm 3 m/s 621 mmHg 60%
    14:00 +25°C° 0,6 mm 3 m/s 621 mmHg 66%
    15:00 +24°C° 0,6 mm 3 m/s 620 mmHg 73%
    16:00 +22°C° 0,6 mm 3 m/s 620 mmHg 80%
    17:00 +21°C° 0,9 mm 3 m/s 620 mmHg 85%
    18:00 +19°C° 0,9 mm 3 m/s 620 mmHg 89%
    19:00 +18°C° 0,9 mm 2 m/s 620 mmHg 94%
    20:00 +17°C° 0,4 mm 2 m/s 621 mmHg 95%
    21:00 +17°C° 0,4 mm 2 m/s 621 mmHg 95%
    22:00 +17°C° 0,4 mm 3 m/s 621 mmHg 96%
    23:00 +16°C° 0,1 mm 2 m/s 621 mmHg 96%

    20 Dezembro, Quarta-feira

    Tempo Temperatura Precipitação Vento Pressão Humidade
    00:00 +16°C° 0,1 mm 2 m/s 621 mmHg 96%
    01:00 +16°C° 0,1 mm 2 m/s 620 mmHg 96%
    02:00 +16°C° 0 mm 2 m/s 620 mmHg 96%
    03:00 +16°C° 0 mm 2 m/s 620 mmHg 97%
    04:00 +15°C° 0 mm 1 m/s 620 mmHg 97%
    05:00 +16°C° 0 mm 2 m/s 620 mmHg 96%
    06:00 +16°C° 0 mm 2 m/s 621 mmHg 94%
    07:00 +17°C° 0 mm 2 m/s 622 mmHg 93%
    08:00 +18°C° 0,1 mm 2 m/s 622 mmHg 85%
    09:00 +20°C° 0,1 mm 3 m/s 623 mmHg 77%
    10:00 +22°C° 0,1 mm 3 m/s 623 mmHg 69%
    11:00 +24°C° 0,3 mm 3 m/s 623 mmHg 67%
    12:00 +23°C° 0,3 mm 4 m/s 623 mmHg 64%
    13:00 +25°C° 0,3 mm 4 m/s 622 mmHg 62%
    14:00 +23°C° 0,6 mm 4 m/s 622 mmHg 67%
    15:00 +24°C° 0,6 mm 3 m/s 622 mmHg 72%
    16:00 +22°C° 0,6 mm 3 m/s 621 mmHg 77%
    17:00 +21°C° 0,6 mm 3 m/s 621 mmHg 83%
    18:00 +19°C° 0,6 mm 2 m/s 621 mmHg 88%
    19:00 +17°C° 0,6 mm 2 m/s 621 mmHg 94%
    20:00 +17°C° 0,3 mm 2 m/s 622 mmHg 94%
    21:00 +17°C° 0,3 mm 2 m/s 622 mmHg 95%
    22:00 +17°C° 0,3 mm 2 m/s 623 mmHg 96%
    23:00 +16°C° 0,1 mm 2 m/s 622 mmHg 96%

    21 Dezembro, Quinta-feira

    Tempo Temperatura Precipitação Vento Pressão Humidade
    00:00 +16°C° 0,1 mm 1 m/s 622 mmHg 96%
    01:00 +16°C° 0,1 mm 1 m/s 622 mmHg 96%
    02:00 +16°C° 0 mm 1 m/s 621 mmHg 97%
    03:00 +15°C° 0 mm 1 m/s 621 mmHg 97%
    04:00 +15°C° 0 mm 1 m/s 621 mmHg 97%
    05:00 +16°C° 0 mm 1 m/s 622 mmHg 95%
    06:00 +16°C° 0 mm 1 m/s 622 mmHg 93%
    07:00 +18°C° 0 mm 1 m/s 623 mmHg 92%
    08:00 +20°C° 0 mm 1 m/s 623 mmHg 80%
    09:00 +23°C° 0 mm 1 m/s 624 mmHg 69%
    10:00 +25°C° 0 mm 1 m/s 625 mmHg 57%
    11:00 +26°C° 0 mm 2 m/s 624 mmHg 54%
    12:00 +26°C° 0 mm 2 m/s 624 mmHg 51%
    13:00 +27°C° 0 mm 2 m/s 623 mmHg 47%
    14:00 +27°C° 0,2 mm 2 m/s 623 mmHg 52%
    15:00 +26°C° 0,2 mm 2 m/s 622 mmHg 57%
    16:00 +25°C° 0,2 mm 2 m/s 622 mmHg 62%
    17:00 +23°C° 0,3 mm 2 m/s 622 mmHg 70%
    18:00 +20°C° 0,3 mm 2 m/s 622 mmHg 77%
    19:00 +18°C° 0,3 mm 2 m/s 622 mmHg 85%
    20:00 +18°C° 0 mm 2 m/s 622 mmHg 87%
    21:00 +17°C° 0 mm 2 m/s 622 mmHg 88%
    22:00 +16°C° 0 mm 2 m/s 622 mmHg 90%
    23:00 +16°C° 0 mm 2 m/s 622 mmHg 91%
    Mostrar mais